Location: Newark
(51.0500°N, 12.4500°E)
Time: 01:00:33
(UTC+00:00)

Vanguard 1 - Visible Passes

Search period start: 29 February 2020 00:00
Search period end: 10 March 2020 00:00
Orbit: 649 x 3834 km, 34.3° (Epoch: 27 February)

Date Brightness Start Highest point End Pass type
(mag) Time Alt. Az. Time Alt. Az. Time Alt. Az.
29 Feb 14.1 03:40:19 10° S 03:57:00 26° SE 04:12:28 10° E visible
01 Mar 14.3 01:50:21 10° SE 01:56:08 11° SE 02:02:00 10° ESE visible
01 Mar 14.0 03:59:19 10° SSW 04:17:29 32° SSE 04:34:09 10° E visible
02 Mar 14.1 02:04:50 10° SSE 02:16:11 17° SE 02:27:47 10° E visible
02 Mar 13.8 04:18:50 10° SSW 04:38:04 36° SSE 04:55:32 10° E visible
03 Mar 13.9 02:22:08 10° S 02:36:19 22° SE 02:50:57 10° E visible
03 Mar 13.7 04:38:42 10° SW 04:58:45 40° SSE 05:16:43 10° E visible
04 Mar 13.8 02:40:34 10° S 02:56:33 27° SE 03:13:10 10° E visible
04 Mar 13.7 04:58:52 10° SW 05:19:31 44° SSE 05:37:45 10° ESE visible
05 Mar 14.0 00:51:32 10° SE 00:56:13 11° ESE 01:01:06 10° ESE visible
05 Mar 13.8 02:59:39 10° SSW 03:16:55 32° SE 03:34:55 10° E visible
06 Mar 13.8 01:06:20 11° SSE 01:16:04 16° SE 01:27:20 10° E visible
06 Mar 13.7 03:19:12 10° SSW 03:37:24 37° SSE 03:56:22 10° E visible
07 Mar 13.7 01:26:17 15° SSE 01:36:03 21° SE 01:50:37 10° E visible
07 Mar 13.6 03:39:06 10° SW 03:58:00 41° SSE 04:17:36 10° E visible
08 Mar 13.5 01:46:08 18° S 01:56:10 26° SE 02:12:56 10° E visible
08 Mar 13.5 03:59:16 10° SW 04:18:41 45° SSE 04:38:43 10° E visible
09 Mar 13.4 02:05:54 20° S 02:16:24 32° SE 02:34:46 10° E visible
09 Mar 13.5 04:19:39 10° SW 04:39:29 47° SSE 04:59:43 10° ESE visible
